sat.trackr.live / text

‹ back to catalog

SENTINEL-1C

NORAD 62261 · 2024-235A

PAYLOAD ACTIVE UNKNOWN

§ Identity

Operator
Country
ESA
Launch date
2024-12-05
Launch site
FRGUI
Launch vehicle
Mass (kg)
RCS (m²)

External: N2YO · Heavens-Above · Gunter

§ Orbital elements

Epoch: 2026-09-22T23:37:02.587008Z

Period
98.68 min
Inclination
98.1823°
Eccentricity
0.0001362
Mean motion
14.59197784 rev/d
Perigee alt
694.8 km
Apogee alt
696.7 km
Semi-major
7,073.9 km
B*
2.8586e-5
RAAN
271.9056°
Arg perigee
89.9448°
Mean anomaly
270.1908°
Rev number
9,567

§ Raw data

SENTINEL-1C1 62261U 24235A   26265.98405772  .00000089  00000+0  28586-4 0  99952 62261  98.1823 271.9056 0001362  89.9448 270.1908 14.59197784 95673

JSON: /api/v1/satellites/62261 · /tle

For live sub-satellite position, see the globe view (requires WebGL).

§ Visibility from observer

Set your observer location to see the next 7 days of passes ≥ 10°. The values pass through the URL so the page stays shareable.

No JS? Fill the form by hand. The geolocation button needs JavaScript.